Retour au catalogue

INTELSAT 33E DEB

ActifMEO
NORAD 64394·DEBRIS· XX

Lancé Aug 24, 2016 depuis Guiana Space Centre

Loading…

Prochains Passages (prochaines 24 heures)

TLE

FraisSource: Space-Track

Époque: Sep 13, 2026, 20:10 UTC

1 64394U 16053Y   26256.84045384 -.00000179  00000-0  00000+0 0  9995
2 64394   1.4893  47.7783 0620165 337.8162  20.2270  1.08360400  7405

Suivez INTELSAT 33E DEB en temps réel avec AllMySat

Download on the App Store